Regional Weather Roundup
Issued by NWS

Home | Current Version | Previous Version | Graphics & Text | Print | Product List | Glossary On
Versions: 1 2 3 4 5 6 7 8 9 10 11 12 13 14 15 16 17 18 19 20 21 22 23 24 25 26 27 28 29 30 31 32 33 34 35 36 37 38 39 40 41 42 43 44 45 46 47 48 49 50
003
ASUS43 KOAX 201610
RWRNE

WEATHER ROUNDUP FOR NEBRASKA
NATIONAL WEATHER SERVICE OMAHA NE
1100 AM CDT SUN AUG 20 2017

NOTES: SATELLITE DATA IS BEING USED TO AUGMENT CLOUD COVER ABOVE
       12000 FEET.
       "FAIR" INDICATES FEW OR NO CLOUDS BELOW 12,000 FEET WITH NO
       SIGNIFICANT WEATHER AND/OR OBSTRUCTIONS TO VISIBILITY.


NEZ001>004-019>022-054>056-201700-
NEBRASKA PANHANDLE

CITY           SKY/WX    TMP DP  RH WIND       PRES   REMARKS
SCOTTSBLUFF    MOSUNNY   70  56  61 NE14      30.09S
ALLIANCE       MOSUNNY   74  53  48 E16       30.09R
CHADRON        SUNNY     72  51  47 NE7       30.10R
GORDON         FAIR      75  52  45 E13       30.08R
KIMBALL        MOSUNNY   68  50  51 N10       30.13S
SIDNEY         CLOUDY    73  57  57 NE14      30.09R
$$

NEZ057>060-069>072-079>082-201700-
SOUTHWEST NEBRASKA

CITY           SKY/WX    TMP DP  RH WIND       PRES   REMARKS
NORTH PLATTE   SUNNY     80  66  62 NE10      29.95R
IMPERIAL       SUNNY     79  62  56 NE12      29.98R
LEXINGTON      SUNNY     76  68  74 SE6       29.94S
MCCOOK         SUNNY     77  58  51 VRB3      29.93F
OGALLALA       SUNNY     79  63  57 NE16      29.98S
$$

NEZ005>010-023>029-035>040-094-201700-
NORTH CENTRAL NEBRASKA

CITY           SKY/WX    TMP DP  RH WIND       PRES   REMARKS
VALENTINE      SUNNY     78  57  48 E16       30.00F
AINSWORTH      SUNNY     77  64  63 E13G21    29.99S
BROKEN BOW     SUNNY     76  65  68 NE9       29.96R
O`NEILL        SUNNY     78  63  60 SE7       29.99S
ORD            SUNNY     74  63  68 E5        29.95R
THEDFORD       SUNNY     77  63  63 NE14      30.00S
$$

NEZ041-046>049-061>064-073>077-083>087-201700-
SOUTH CENTRAL NEBRASKA

CITY           SKY/WX    TMP DP  RH WIND       PRES   REMARKS
GRAND ISLAND   SUNNY     77  69  76 S10       29.94S
AURORA         MOSUNNY   77  68  74 SE14      29.94S
HASTINGS       SUNNY     78  67  68 S8        29.94S
HEBRON         SUNNY     82  69  64 S16G22    29.92S
HOLDREGE       SUNNY     77  66  68 SE9       29.93S
KEARNEY        SUNNY     76  68  76 S8        29.94S
YORK           MOSUNNY   77  68  73 SE10      29.96R
$$

NEZ011>018-030>034-042>045-201700-
NORTHEAST NEBRASKA

CITY           SKY/WX    TMP DP  RH WIND       PRES   REMARKS
NORFOLK        SUNNY     78  63  59 E6        29.98R
ALBION         SUNNY     78  68  72 E6        29.97F
BLAIR          RAIN      73  66  80 N5        29.97R
COLUMBUS       SUNNY     77  67  71 NE10      29.98R
FREMONT        CLOUDY    77  64  63 W3        29.99R
TEKAMAH        PTSUNNY   75  67  76 VRB5      29.98R
WAYNE          SUNNY     76  68  74 S6        29.98R
$$

NEZ050>053-065>068-078-088>093-201700-
SOUTHEAST NEBRASKA

CITY           SKY/WX    TMP DP  RH WIND       PRES   REMARKS
LINCOLN        CLOUDY    75  66  73 S5        29.96R
OMAHA EPPLEY   CLOUDY    72  65  78 CALM      29.96R THUNDER
BEATRICE       SUNNY     82  65  57 SE8G24    29.95R
FALLS CITY     SUNNY     81  67  62 S13G18    29.95R
NEBRASKA CITY  CLOUDY    70  69  99 E9G16     29.99R THUNDER
PLATTSMOUTH    CLOUDY    69  65  88 N9        30.00R
$$

NEZ044-045-051>053-067-201700-
OMAHA AREA

CITY           SKY/WX    TMP DP  RH WIND       PRES   REMARKS
OMAHA EPPLEY   CLOUDY    72  65  78 CALM      29.96R THUNDER
BLAIR          RAIN      73  66  80 N5        29.97R
FREMONT        CLOUDY    77  64  63 W3        29.99R
MILLARD        CLOUDY    73  66  78 CALM      29.97R
OFFUTT AFB     CLOUDY    68  64  88 W5        29.97R
PLATTSMOUTH    CLOUDY    69  65  88 N9        30.00R
WAHOO          CLOUDY    74  64  70 CALM      29.98R
$$




USA.gov is the U.S. government's official web portal to all federal, state and local government web resources and services.